EW9904 Weather Reports


Display with metric or nautical units.
time (UTC)temp
F
wind
direction
speed
MPH
gust
MPH
rain 1hr
in
rain 24hr
in
rain mn
in
humidity
%
barometer
mb
20260906183007 79 51 2.0 6.0 0.00 0.00 0.00 66 1014.4
20260906182503 80 5 2.0 8.0 0.00 0.00 0.00 65 1014.4
20260906182004 80 355 2.0 8.0 0.00 0.00 0.00 68 1014.4
20260906181503 80 14 2.0 5.0 0.00 0.00 0.00 64 1014.5
20260906181007 80 52 2.0 8.0 0.00 0.00 0.00 68 1014.4
20260906180503 80 355 3.0 8.0 0.00 0.00 0.00 64 1014.4
20260906180005 80 60 2.0 5.0 0.00 0.00 0.00 64 1014.4
20260906175503 80 55 2.0 8.0 0.00 0.00 0.00 69 1014.4
20260906175003 79 44 3.0 8.0 0.00 0.00 0.00 64 1014.5
20260906174503 80 342 4.0 10.0 0.00 0.00 0.00 68 1014.4
20260906174003 79 355 3.0 8.0 0.00 0.00 0.00 70 1014.5
20260906173503 80 10 3.0 13.0 0.00 0.00 0.00 71 1014.5
20260906173005 79 53 4.0 13.0 0.00 0.00 0.00 68 1014.5
20260906172502 80 32 3.0 11.0 0.00 0.00 0.00 66 1014.4
20260906172004 79 351 3.0 11.0 0.00 0.00 0.00 67 1014.4
20260906171502 79 50 4.0 11.0 0.00 0.00 0.00 67 1014.6
20260906171004 79 29 4.0 12.0 0.00 0.00 0.00 68 1014.5
20260906170503 79 27 4.0 12.0 0.00 0.00 0.00 66 1014.6
20260906165007 79 26 3.0 9.0 0.00 0.00 0.00 69 1014.7
20260906164504 79 42 4.0 9.0 0.00 0.00 0.00 70 1014.6
20260906163503 79 5 4.0 11.0 0.00 0.00 0.00 69 1014.6
20260906163005 79 53 3.0 10.0 0.00 0.00 0.00 69 1014.5
20260906162503 78 20 3.0 8.0 0.00 0.00 0.00 72 1014.5
20260906162003 78 157 4.0 11.0 0.00 0.00 0.00 70 1014.5
20260906161006 78 101 3.0 11.0 0.00 0.00 0.00 69 1014.5
20260906160504 79 84 3.0 6.0 0.00 0.00 0.00 71 1014.6
20260906160005 79 75 3.0 6.0 0.00 0.00 0.00 74 1014.5
20260906155502 78 9 3.0 9.0 0.00 0.00 0.00 73 1014.5
20260906155004 77 17 4.0 9.0 0.00 0.00 0.00 70 1014.4
20260906154505 78 342 3.0 8.0 0.00 0.00 0.00 73 1014.5
20260906154002 78 36 3.0 6.0 0.00 0.00 0.00 71 1014.5
20260906153502 78 97 3.0 6.0 0.00 0.00 0.00 72 1014.5
20260906153009 77 324 3.0 6.0 0.00 0.00 0.00 73 1014.5
20260906152502 78 131 3.0 6.0 0.00 0.00 0.00 69 1014.5
20260906152006 78 95 3.0 8.0 0.00 0.00 0.00 74 1014.4
20260906151504 78 34 3.0 8.0 0.00 0.00 0.00 71 1014.5
20260906151002 77 40 4.0 9.0 0.00 0.00 0.00 71 1014.5
20260906150502 77 13 3.0 9.0 0.00 0.00 0.00 72 1014.4
20260906150006 77 11 3.0 9.0 0.00 0.00 0.00 74 1014.4
20260906145502 76 69 4.0 9.0 0.00 0.00 0.00 73 1014.4
20260906145003 76 306 4.0 10.0 0.00 0.00 0.00 71 1014.3
20260906144504 77 55 3.0 7.0 0.00 0.00 0.00 74 1014.4
20260906144005 77 57 3.0 6.0 0.00 0.00 0.00 74 1014.3
20260906143504 76 340 3.0 7.0 0.00 0.00 0.00 74 1014.3
20260906143004 76 12 2.0 9.0 0.00 0.00 0.00 75 1014.2
20260906142003 76 57 3.0 6.0 0.00 0.00 0.00 80 1014.2
20260906141502 75 50 3.0 7.0 0.00 0.00 0.00 77 1014.1
20260906141004 75 29 2.0 5.0 0.00 0.00 0.00 78 1014.1
20260906140503 75 34 2.0 4.0 0.00 0.00 0.00 80 1014.0
20260906135502 74 39 2.0 3.0 0.00 0.00 0.00 81 1014.0
20260906135001 74 39 2.0 6.0 0.00 0.00 0.00 80 1014.1
20260906134504 74 36 2.0 6.0 0.00 0.00 0.00 81 1014.1
20260906134002 74 5 3.0 6.0 0.00 0.00 0.00 82 1014.0
20260906133501 74 360 3.0 6.0 0.00 0.00 0.00 81 1014.0
20260906133001 73 61 2.0 4.0 0.00 0.00 0.00 84 1014.0
20260906132501 72 66 3.0 5.0 0.00 0.00 0.00 85 1014.0
20260906132002 72 70 3.0 5.0 0.00 0.00 0.00 83 1014.0
20260906131500 73 71 2.0 5.0 0.00 0.00 0.00 83 1014.0
20260906131002 73 71 2.0 5.0 0.00 0.00 0.00 83 1013.8
20260906130502 74 65 2.0 5.0 0.00 0.00 0.00 84 1013.7
20260906130002 74 69 2.0 5.0 0.00 0.00 0.00 85 1013.7
20260906124501 72 67 2.0 5.0 0.00 0.00 0.00 87 1013.7
20260906124003 71 88 2.0 5.0 0.00 0.00 0.00 88 1013.7
20260906123502 70 18 1.0 4.0 0.00 0.00 0.00 89 1013.6
20260906123003 70 5 0.0 4.0 0.00 0.00 0.00 89 1013.6
20260906122002 69 5 1.0 3.0 0.00 0.00 0.00 89 1013.5
20260906121502 69 5 1.0 3.0 0.00 0.00 0.00 90 1013.5
20260906121003 68 5 1.0 3.0 0.00 0.00 0.00 91 1013.5
20260906120504 67 5 1.0 2.0 0.00 0.00 0.00 91 1013.4
20260906120005 67 5 1.0 3.0 0.00 0.00 0.00 92 1013.5
20260906115502 66 5 1.0 3.0 0.00 0.00 0.00 92 1013.5
20260906115003 66 5 1.0 2.0 0.00 0.00 0.00 92 1013.5
20260906114500 65 5 0.0 2.0 0.00 0.00 0.00 92 1013.5
20260906114002 65 5 0.0 1.0 0.00 0.00 0.00 93 1013.4
20260906113502 65 5 0.0 1.0 0.00 0.00 0.00 92 1013.3
20260906113002 64 5 0.0 1.0 0.00 0.00 0.00 92 1013.2
20260906112502 64 5 0.0 1.0 0.00 0.00 0.00 92 1013.1
20260906112002 64 5 0.0 1.0 0.00 0.00 0.00 93 1013.0
20260906111501 64 5 0.0 1.0 0.00 0.00 0.00 93 1013.0
20260906111004 64 5 0.0 1.0 0.00 0.00 0.00 93 1012.9
20260906110005 63 5 0.0 0.0 0.00 0.00 0.00 93 1012.8
20260906105502 63 5 0.0 0.0 0.00 0.00 0.00 93 1012.7
20260906105003 63 5 0.0 1.0 0.00 0.00 0.00 93 1012.6
20260906104505 63 5 0.0 1.0 0.00 0.00 0.00 93 1012.5
20260906104004 63 5 0.0 1.0 0.00 0.00 0.00 93 1012.4
20260906103002 63 5 0.0 1.0 0.00 0.00 0.00 93 1012.2
20260906102503 63 5 0.0 1.0 0.00 0.00 0.00 93 1012.1
20260906102003 63 5 0.0 1.0 0.00 0.00 0.00 93 1012.1
20260906101502 63 5 0.0 1.0 0.00 0.00 0.00 93 1012.0
20260906101004 63 5 0.0 1.0 0.00 0.00 0.00 93 1011.9
20260906100502 63 5 0.0 1.0 0.00 0.00 0.00 93 1011.9
20260906095501 63 5 0.0 0.0 0.00 0.00 0.00 92 1011.9
20260906095003 63 5 0.0 0.0 0.00 0.00 0.00 92 1011.8
20260906094500 63 5 0.0 0.0 0.00 0.00 0.00 92 1011.7
20260906094001 63 5 0.0 0.0 0.00 0.00 0.00 92 1011.7
20260906093501 63 5 0.0 0.0 0.00 0.00 0.00 92 1011.6
20260906093002 64 5 0.0 0.0 0.00 0.00 0.00 92 1011.6
20260906092500 64 5 0.0 0.0 0.00 0.00 0.00 92 1011.6
20260906092003 64 5 0.0 0.0 0.00 0.00 0.00 92 1011.6
20260906091001 64 5 0.0 0.0 0.00 0.00 0.00 92 1011.5
20260906090001 64 5 0.0 1.0 0.00 0.00 0.00 92 1011.5
20260906085500 64 5 0.0 1.0 0.00 0.00 0.00 92 1011.5
20260906085000 64 5 0.0 0.0 0.00 0.00 0.00 92 1011.4
20260906084500 64 5 0.0 1.0 0.00 0.00 0.00 91 1011.4
20260906084000 64 5 0.0 1.0 0.00 0.00 0.00 91 1011.3
20260906083459 64 5 0.0 1.0 0.00 0.00 0.00 91 1011.4
20260906082500 64 5 0.0 1.0 0.00 0.00 0.00 91 1011.3
20260906082000 65 5 0.0 1.0 0.00 0.00 0.00 91 1011.2
20260906081501 65 5 0.0 1.0 0.00 0.00 0.00 91 1011.2
20260906080501 65 5 0.0 1.0 0.00 0.00 0.00 91 1011.1
20260906080006 65 5 0.0 1.0 0.00 0.00 0.00 91 1011.1
20260906075501 65 5 0.0 1.0 0.00 0.00 0.00 91 1011.1
20260906074002 65 5 1.0 2.0 0.00 0.00 0.00 92 1011.1
20260906073501 65 5 1.0 2.0 0.00 0.00 0.00 92 1011.1
20260906073001 65 5 0.0 1.0 0.00 0.00 0.00 92 1011.1
20260906071500 65 5 0.0 1.0 0.00 0.00 0.00 92 1011.0
20260906071001 64 5 0.0 1.0 0.00 0.00 0.00 92 1011.0
20260906070500 65 5 0.0 1.0 0.00 0.00 0.00 92 1011.0
20260906070006 65 5 0.0 0.0 0.00 0.00 0.00 92 1011.0
20260906065501 65 5 0.0 0.0 0.00 0.00 0.00 92 1010.9
20260906065001 65 5 0.0 0.0 0.00 0.00 0.00 92 1011.0
20260906064502 65 5 0.0 1.0 0.00 0.00 0.00 92 1011.0
20260906064001 65 5 0.0 1.0 0.00 0.00 0.00 92 1010.9
20260906063501 65 5 0.0 1.0 0.00 0.00 0.00 92 1011.0
20260906062500 65 5 0.0 1.0 0.00 0.00 0.00 91 1011.0
20260906062001 65 5 0.0 1.0 0.00 0.00 0.00 92 1011.0
20260906061502 65 5 0.0 1.0 0.00 0.00 0.00 92 1011.0
20260906061007 65 5 0.0 1.0 0.00 0.00 0.00 92 1011.1
20260906060502 65 5 0.0 1.0 0.00 0.00 0.00 92 1011.2
20260906060003 65 5 0.0 1.0 0.00 0.00 0.00 92 1011.2
20260906055500 65 5 0.0 1.0 0.00 0.00 0.00 92 1011.3
20260906055003 65 5 0.0 1.0 0.00 0.00 0.00 92 1011.3
20260906054501 65 5 0.0 0.0 0.00 0.00 0.00 92 1011.2
20260906054002 65 5 0.0 0.0 0.00 0.00 0.00 92 1011.3
20260906053501 65 5 0.0 0.0 0.00 0.00 0.00 92 1011.3
20260906053001 65 5 0.0 0.0 0.00 0.00 0.00 92 1011.4
20260906052501 65 5 0.0 0.0 0.00 0.00 0.00 92 1011.4
20260906052000 65 5 0.0 0.0 0.00 0.00 0.00 92 1011.5
20260906051501 66 5 0.0 0.0 0.00 0.00 0.00 92 1011.5
20260906051001 66 5 0.0 0.0 0.00 0.00 0.00 92 1011.5
20260906050507 66 5 0.0 1.0 0.00 0.00 0.00 92 1011.5
20260906050008 66 5 0.0 0.0 0.00 0.00 0.00 92 1011.5
20260906045504 66 5 0.0 1.0 0.00 0.00 0.00 92 1011.6
20260906045005 66 5 0.0 1.0 0.00 0.00 0.00 91 1011.6
20260906044505 66 5 0.0 1.0 0.00 0.00 0.00 91 1011.6
20260906044006 66 5 0.0 0.0 0.00 0.00 0.00 91 1011.5
20260906043504 66 5 0.0 0.0 0.00 0.00 0.00 91 1011.6
20260906043005 66 5 0.0 0.0 0.00 0.00 0.00 92 1011.7
20260906042505 66 5 0.0 0.0 0.00 0.00 0.00 92 1011.7
20260906042006 66 5 0.0 0.0 0.00 0.00 0.00 91 1011.7
20260906041506 66 5 0.0 0.0 0.00 0.00 0.00 91 1011.7
20260906041010 66 5 0.0 0.0 0.00 0.00 0.00 91 1011.7
20260906040504 67 5 0.0 0.0 0.00 0.00 0.00 91 1011.7
20260906040011 67 5 0.0 0.0 0.00 0.00 0.00 92 1011.7
20260906035505 66 5 0.0 1.0 0.00 0.00 0.00 91 1011.7
20260906035005 66 5 0.0 1.0 0.00 0.00 0.00 91 1011.8
20260906034505 67 5 0.0 1.0 0.00 0.00 0.00 92 1011.8
20260906034007 66 5 0.0 1.0 0.00 0.00 0.00 91 1011.7
20260906033504 66 5 0.0 1.0 0.00 0.00 0.00 91 1011.8
20260906033005 67 5 0.0 0.0 0.00 0.00 0.00 91 1011.8
20260906032005 67 5 0.0 0.0 0.00 0.00 0.00 91 1011.8
20260906031005 67 5 0.0 0.0 0.00 0.00 0.00 91 1011.9
20260906030506 67 5 0.0 0.0 0.00 0.00 0.00 91 1011.9
20260906030008 67 5 0.0 0.0 0.00 0.00 0.00 91 1011.8
20260906025504 67 5 0.0 0.0 0.00 0.00 0.00 90 1011.7
20260906025006 67 5 0.0 0.0 0.00 0.00 0.00 90 1011.9
20260906024505 67 5 0.0 0.0 0.00 0.00 0.00 90 1011.8
20260906024006 68 5 0.0 0.0 0.00 0.00 0.00 90 1011.8
20260906023507 68 5 0.0 1.0 0.00 0.00 0.00 90 1011.8
20260906023021 68 5 0.0 1.0 0.00 0.00 0.00 89 1011.8
20260906022508 68 5 0.0 0.0 0.00 0.00 0.00 89 1011.7
20260906022008 68 5 0.0 0.0 0.00 0.00 0.00 89 1011.7
20260906021505 69 5 0.0 1.0 0.00 0.00 0.00 88 1011.6
20260906021005 68 5 0.0 1.0 0.00 0.00 0.00 89 1011.6
20260906020506 68 5 0.0 0.0 0.00 0.00 0.00 88 1011.6
20260906020006 69 5 0.0 0.0 0.00 0.00 0.00 88 1011.6
20260906015504 69 5 0.0 0.0 0.00 0.00 0.00 88 1011.5
20260906015007 69 5 0.0 1.0 0.00 0.00 0.00 88 1011.3
20260906014503 69 5 0.0 1.0 0.00 0.00 0.00 87 1011.3
20260906014004 69 5 0.0 0.0 0.00 0.00 0.00 88 1011.2
20260906013504 69 5 0.0 0.0 0.00 0.00 0.00 88 1011.2
20260906013004 69 5 0.0 0.0 0.00 0.00 0.00 88 1011.0
20260906012502 69 5 0.0 0.0 0.00 0.00 0.00 87 1011.0
20260906012004 69 5 0.0 1.0 0.00 0.00 0.00 87 1011.1
20260906011504 69 5 0.0 1.0 0.00 0.00 0.00 87 1011.0
20260906011004 69 5 0.0 1.0 0.00 0.00 0.00 87 1011.0
20260906010504 69 5 0.0 0.0 0.00 0.00 0.00 87 1011.1
20260906010006 69 5 0.0 0.0 0.00 0.00 0.00 87 1011.1
20260906005504 69 5 0.0 0.0 0.00 0.00 0.00 86 1011.1
20260906004008 70 5 0.0 1.0 0.00 0.00 0.00 86 1011.0
20260906003511 70 5 0.0 0.0 0.00 0.00 0.00 86 1010.9
20260906003006 70 5 0.0 0.0 0.00 0.00 0.00 86 1010.9
20260906002503 70 5 0.0 0.0 0.00 0.00 0.00 85 1010.8
20260906002004 70 5 0.0 0.0 0.00 0.00 0.00 86 1010.6
20260906001504 70 5 0.0 0.0 0.00 0.00 0.00 85 1010.7
20260906001004 70 5 0.0 0.0 0.00 0.00 0.00 85 1010.6
20260906000008 71 5 0.0 0.0 0.00 0.00 0.00 84 1010.5
20260905235504 71 5 0.0 1.0 0.00 0.00 0.00 84 1010.5
20260905235006 71 5 0.0 1.0 0.00 0.00 0.00 84 1010.5
20260905234505 72 5 0.0 0.0 0.00 0.00 0.00 84 1010.4
20260905234006 72 5 0.0 0.0 0.00 0.00 0.00 83 1010.4
20260905233504 72 5 0.0 0.0 0.00 0.00 0.00 83 1010.5
20260905233006 72 5 0.0 0.0 0.00 0.00 0.00 83 1010.4
20260905231005 73 5 0.0 1.0 0.00 0.00 0.00 81 1010.4
20260905230504 73 5 0.0 1.0 0.00 0.00 0.00 81 1010.4
20260905230005 74 5 0.0 1.0 0.00 0.00 0.00 80 1010.3
20260905225504 74 5 0.0 1.0 0.00 0.00 0.00 78 1010.3
20260905225004 75 5 0.0 0.0 0.00 0.00 0.00 79 1010.3
20260905224503 75 5 0.0 1.0 0.00 0.00 0.00 77 1010.2
20260905224004 75 5 0.0 2.0 0.00 0.00 0.00 77 1010.2
20260905222503 77 5 1.0 3.0 0.00 0.00 0.00 71 1010.2
20260905222004 77 5 1.0 3.0 0.00 0.00 0.00 70 1010.1
20260905221503 77 5 1.0 4.0 0.00 0.00 0.00 70 1010.1
20260905221004 78 5 2.0 4.0 0.00 0.00 0.00 68 1010.2
20260905220503 78 5 2.0 4.0 0.00 0.00 0.00 68 1010.1
20260905220009 79 5 2.0 4.0 0.00 0.00 0.00 67 1010.1
20260905215503 79 5 2.0 6.0 0.00 0.00 0.00 68 1010.0
20260905213503 79 38 2.0 5.0 0.00 0.00 0.00 67 1009.7
20260905213004 80 24 2.0 7.0 0.00 0.00 0.00 65 1009.8
20260905212504 80 355 3.0 7.0 0.00 0.00 0.00 63 1009.8
20260905212005 81 68 2.0 6.0 0.00 0.00 0.00 65 1009.7
20260905211503 80 61 3.0 6.0 0.00 0.00 0.00 66 1009.5
20260905210504 80 351 3.0 6.0 0.00 0.00 0.00 67 1009.4
20260905210008 80 346 3.0 6.0 0.00 0.00 0.00 67 1009.4
20260905205504 80 17 2.0 4.0 0.00 0.00 0.00 66 1009.4
20260905205005 79 21 2.0 6.0 0.00 0.00 0.00 70 1009.4
20260905204504 79 21 2.0 5.0 0.00 0.00 0.00 70 1009.4
20260905204005 78 21 2.0 5.0 0.00 0.00 0.00 69 1009.4
20260905203004 79 38 2.0 5.0 0.00 0.00 0.00 70 1009.5
20260905202504 79 38 3.0 6.0 0.00 0.00 0.00 68 1009.4
20260905202004 79 63 3.0 6.0 0.00 0.00 0.00 67 1009.4
20260905201503 80 5 2.0 6.0 0.00 0.00 0.00 70 1009.5
20260905201004 80 5 2.0 8.0 0.00 0.00 0.00 69 1009.5
20260905200502 80 350 2.0 8.0 0.00 0.00 0.00 66 1009.5
20260905200007 80 70 2.0 5.0 0.00 0.00 0.00 66 1009.6
20260905195503 81 351 2.0 4.0 0.00 0.00 0.00 70 1009.6
20260905195004 80 355 2.0 8.0 0.00 0.00 0.00 68 1009.7
20260905194505 80 355 2.0 8.0 0.00 0.00 0.00 66 1009.8
20260905194006 81 49 2.0 5.0 0.00 0.00 0.00 68 1009.8
20260905193503 80 49 2.0 5.0 0.00 0.00 0.00 68 1010.0
20260905193004 80 37 2.0 9.0 0.00 0.00 0.00 70 1010.2
20260905192503 80 17 2.0 4.0 0.00 0.00 0.00 69 1010.2
20260905192004 80 17 2.0 5.0 0.00 0.00 0.00 66 1010.3
20260905191502 81 21 3.0 5.0 0.00 0.00 0.00 68 1010.3
20260905190504 82 39 3.0 7.0 0.00 0.00 0.00 66 1010.3
20260905190005 81 55 3.0 9.0 0.00 0.00 0.00 66 1010.4
20260905185004 80 24 3.0 9.0 0.00 0.00 0.00 67 1010.5
20260905184004 81 5 4.0 9.0 0.00 0.00 0.00 64 1010.6
20260905183503 81 355 4.0 12.0 0.00 0.00 0.00 65 1010.7